Wind_Gust
4 5 6 4 7 6 7 7 11 16 14 12 7 2 5 6 7 15 11 13 14 11 10 11 13 14 16 15 15 13 11 12 13 16 21 21 18 16 20 18 17 20 18 16 17 18 17 16 15 13 12 11 11 11 10 7 8 8 9 7 8 7 8 12 16 16 15 15 13 11 12 14 9 4 4 5 5 6 6 6 6 6 6 7 8 7 6
8 9 9 8 8 5 7 14 14 13 13 14 11 9 4 3 8 12 21 15 13 9 9 11 12 13 17 15 11 14 16 15 14 17 19 18 17 18 18 17 16 17 17 19 19 21 19 18 16 15 15 13 13 12 12 10 7 6 6 7 7 7 7 4 3 4 7 13 17 14 12 13 15 15 11 7 6 7 6 4 4 4 6 4 6 8 8
7 9 9 8 9 5 10 11 16 16 12 12 14 11 11 15 18 18 16 15 11 9 9 14 11 12 15 18 20 18 13 15 16 21 19 19 17 16 16 17 16 16 19 21 22 22 20 19 17 17 16 17 16 15 12 11 9 5 6 8 7 8 8 8 9 16 15 8 7 7 4 2 3 6 7 6 6 6 4 3 5 4 5 6 5 6 8
5 6 10 9 6 6 10 11 18 17 14 11 9 6 7 5 14 17 17 11 9 8 9 13 12 15 19 20 18 17 16 16 16 19 20 18 17 16 14 14 16 23 24 22 22 20 21 20 20 20 19 19 20 18 17 16 14 13 12 11 11 10 9 8 13 15 10 16 11 10 9 5 4 4 3 3 3 3 3 3 5 6 3 4 3 3 3
5 3 5 7 6 8 8 8 9 12 7 3 2 3 7 6 6 23 21 12 12 14 9 17 15 16 16 17 15 14 17 16 17 17 15 15 14 13 15 17 22 24 19 17 18 19 18 21 23 18 17 21 20 17 19 15 17 18 18 16 15 14 12 11 11 9 12 11 11 10 10 7 5 6 5 5 4 5 5 6 4 3 2 2 4 4 5
4 3 6 3 7 9 13 5 3 5 5 6 9 8 8 10 12 9 12 18 18 14 13 19 16 17 15 15 13 12 11 13 15 15 13 13 13 13 15 15 17 16 15 17 19 19 19 18 18 16 18 22 20 18 19 20 21 19 20 19 18 17 17 15 12 10 9 9 9 10 7 8 8 8 6 4 5 6 4 3 1 2 2 2 2 2 1
7 2 3 7 8 7 3 2 4 4 9 13 17 12 13 12 17 19 19 16 16 14 14 15 18 18 17 17 16 14 13 10 14 15 13 12 13 15 14 16 15 15 14 16 18 19 17 17 18 19 21 20 20 22 21 23 21 22 21 22 21 19 19 18 18 17 15 13 9 11 11 9 7 6 6 8 7 5 4 3 4 5 4 4 2 3 3
8 5 4 8 4 4 4 3 4 4 4 2 2 15 15 13 11 18 21 17 18 17 17 16 15 19 19 19 18 16 15 14 11 11 15 11 13 15 13 15 15 16 15 16 17 16 14 17 18 19 18 16 22 21 20 23 22 22 21 22 20 19 20 19 19 18 18 18 16 14 11 10 11 11 11 10 8 6 5 6 7 4 6 5 7 6 5
11 6 5 5 2 4 3 5 7 10 5 6 3 9 7 7 3 5 22 18 17 16 15 16 15 13 16 21 17 16 15 14 13 13 13 10 12 14 13 14 14 13 13 15 14 15 18 18 18 17 15 16 19 21 23 21 22 22 22 22 20 18 18 18 18 18 17 18 17 17 14 14 14 13 12 12 10 8 7 6 5 4 4 5 4 6 8
8 10 8 8 4 8 6 3 2 1 3 2 4 5 6 5 10 8 16 21 19 17 13 14 13 6 20 17 10 13 12 10 10 10 8 8 10 12 13 12 13 13 13 14 16 18 19 20 17 15 15 17 20 22 21 20 21 21 22 20 16 16 17 15 15 15 15 15 16 16 17 17 14 12 12 11 11 6 7 4 5 8 6 3 2 6 5
6 6 10 8 9 5 2 5 6 5 3 5 4 6 7 3 9 10 14 18 15 18 18 13 4 8 12 7 5 5 6 8 9 8 9 11 11 11 11 11 12 11 12 13 14 15 18 20 17 15 16 17 21 21 19 19 20 21 21 18 16 15 14 14 16 17 16 16 15 14 15 14 13 13 13 12 10 11 10 7 6 6 6 6 7 6 8
5 9 7 6 5 6 3 7 9 9 5 3 4 7 8 7 9 11 11 17 16 12 9 6 7 11 18 14 10 7 5 8 7 7 8 9 10 11 11 11 10 10 8 13 17 19 18 14 10 14 14 19 19 18 16 16 21 20 17 15 14 12 12 13 15 17 17 17 17 17 15 14 15 14 11 13 15 14 14 13 12 12 11 12 12 6 7
7 9 4 5 5 4 4 9 14 14 5 3 8 9 8 10 11 12 12 14 11 10 8 3 9 5 9 17 13 7 8 9 9 9 10 10 9 11 12 12 9 15 16 18 17 15 12 11 10 11 14 19 19 17 17 20 19 16 13 12 12 11 12 14 16 17 15 15 15 14 13 13 12 12 13 13 13 15 14 13 13 15 15 13 11 10 10
4 2 8 6 3 2 7 14 13 9 5 6 6 3 4 15 15 13 14 14 7 6 6 12 18 19 16 14 12 11 9 10 8 9 9 10 12 12 12 12 13 16 17 16 17 17 14 13 12 12 15 19 15 15 17 18 11 9 10 9 9 11 13 13 13 14 14 14 13 13 12 11 12 12 10 10 11 11 11 12 13 12 11 11 11 11 11
5 9 7 5 6 5 11 20 8 5 5 3 2 10 8 13 16 16 9 9 8 13 17 15 19 18 15 13 12 10 8 10 10 9 10 11 12 12 13 15 13 15 17 18 17 14 13 13 13 12 17 18 15 15 18 11 6 7 6 7 9 11 12 12 12 11 11 11 11 10 10 10 11 12 10 11 11 11 11 10 10 11 11 12 11 11 9
7 6 6 6 6 14 16 7 3 5 5 3 2 7 17 10 15 14 13 9 10 11 21 20 16 15 17 14 11 11 9 9 9 9 9 9 10 11 11 10 10 14 16 14 15 13 13 13 13 12 15 17 14 15 13 7 5 5 8 8 10 12 12 11 10 10 10 10 10 10 11 10 11 12 12 11 12 12 11 12 12 13 13 13 12 13 14
7 5 6 6 6 8 10 7 7 7 10 12 9 11 11 15 10 7 15 14 11 11 18 17 19 18 13 12 9 12 8 9 10 11 10 10 11 11 12 11 12 13 14 13 14 14 12 12 12 12 11 15 14 13 8 6 7 7 7 9 11 11 10 10 11 9 9 11 12 12 11 11 12 11 9 10 13 12 11 12 12 12 11 11 12 11 11
15 18 10 4 7 9 11 12 12 15 15 15 15 14 18 14 12 9 15 15 15 12 14 24 13 13 12 13 10 10 8 9 7 8 10 11 10 10 10 11 11 11 12 12 13 13 13 11 11 10 11 11 13 6 5 7 7 6 8 11 11 11 10 10 10 9 11 10 9 10 10 11 11 10 10 10 9 8 10 10 8 8 8 8 8 8 8
6 12 10 11 9 8 13 16 16 16 16 16 16 20 18 16 16 17 12 15 14 14 14 16 17 13 10 13 10 9 9 9 8 9 9 8 7 9 10 5 7 10 10 12 11 10 11 9 9 9 9 10 7 5 7 6 6 8 10 11 11 11 12 11 11 12 13 12 11 11 10 9 8 9 10 9 8 9 9 11 11 12 11 9 9 9 10
8 10 4 7 7 9 8 10 15 17 17 19 18 17 15 17 16 15 13 14 15 13 15 13 15 11 8 13 10 10 9 9 8 8 9 10 10 7 6 5 8 9 10 9 7 7 8 7 8 8 8 8 7 7 6 6 5 8 10 10 11 10 10 9 11 11 12 11 14 13 14 13 13 13 12 11 11 11 10 11 11 10 11 11 11 12 13
14 10 6 9 12 13 11 10 11 11 14 16 16 15 17 17 20 18 16 14 11 12 12 10 13 12 7 9 11 11 9 9 8 8 8 7 8 6 7 4 6 9 7 7 5 6 5 4 5 6 6 7 7 7 6 6 5 8 8 7 9 10 10 11 12 11 11 12 12 12 13 13 11 6 9 10 8 8 4 7 6 5 8 7 5 4 7
6 8 10 8 12 8 8 8 9 12 13 16 14 11 13 14 14 14 14 10 8 8 8 12 13 15 9 6 8 9 8 9 8 7 7 7 7 6 4 6 7 7 6 7 6 6 3 2 3 4 4 5 5 5 6 6 7 8 6 9 9 9 8 9 9 10 11 11 11 11 11 12 14 14 5 4 2 3 6 6 5 5 2 5 8 8 8
9 9 6 3 9 11 3 4 4 5 6 12 14 13 12 9 11 14 15 12 8 8 5 3 14 11 12 7 7 9 6 6 6 7 10 9 6 6 6 8 7 8 6 7 7 6 2 1 2 2 2 4 5 6 5 4 5 5 5 7 7 8 8 8 7 8 9 10 10 10 11 12 12 14 20 16 7 8 8 9 10 8 6 7 6 4 5
5 4 5 3 7 12 7 3 4 6 5 12 11 7 7 11 11 9 11 13 14 6 6 5 5 13 8 5 8 9 5 4 6 4 3 4 5 5 4 8 8 7 6 6 7 5 2 1 1 1 2 4 4 5 4 4 4 6 6 7 8 6 6 5 7 7 7 8 9 10 11 11 12 13 14 20 22 9 13 16 13 11 11 12 12 10 7
10 5 6 4 8 10 6 5 6 5 3 10 14 9 10 9 5 8 12 7 8 13 10 8 3 4 12 6 7 10 8 5 4 5 6 5 3 5 5 5 6 7 6 6 5 4 3 2 1 1 2 4 4 4 3 4 5 7 6 6 6 6 5 6 7 7 8 9 8 9 9 10 11 10 11 12 16 25 22 8 11 13 13 16 17 17 15
13 12 12 10 8 8 4 7 9 5 3 5 7 3 3 7 8 8 10 10 7 7 11 9 7 2 6 10 5 6 7 6 5 4 6 5 5 4 4 5 5 5 5 5 4 4 2 1 1 1 2 4 4 4 3 5 5 6 5 5 4 4 5 5 7 8 8 7 8 8 7 7 8 10 12 13 14 13 19 25 25 10 5 12 17 18 16
14 14 16 15 11 4 2 9 9 5 2 2 7 7 4 4 5 7 5 4 5 5 9 8 6 6 4 5 7 4 9 6 4 3 3 4 5 5 5 5 5 6 5 4 3 2 2 3 3 4 4 4 4 4 4 4 5 5 5 4 5 5 4 4 5 5 6 7 8 8 9 10 12 11 10 11 10 12 16 18 17 20 22 21 16 15 18
13 7 9 14 9 11 7 3 3 4 3 6 9 9 5 5 7 7 6 5 4 4 5 4 10 9 7 3 7 6 5 6 7 5 4 5 3 2 5 6 6 6 5 4 2 1 1 2 3 4 5 5 5 4 3 3 5 5 5 5 5 5 5 4 6 6 7 8 9 9 9 10 9 10 10 12 14 14 14 13 15 17 16 15 14 12 12
5 5 5 5 10 6 7 8 6 6 4 4 4 5 9 8 4 6 6 6 4 4 4 2 2 3 9 6 4 8 6 5 5 6 6 2 1 4 5 5 5 4 5 3 2 2 2 4 4 5 5 5 5 5 4 4 5 5 5 4 5 5 5 4 5 6 7 7 7 7 6 8 10 11 13 14 14 16 15 16 15 14 14 15 16 17 15
4 5 5 7 7 10 11 7 8 5 5 4 7 3 2 9 8 4 4 2 3 6 3 1 3 4 3 5 4 9 11 10 8 4 3 2 2 3 5 5 6 4 4 3 2 2 3 5 5 5 5 6 5 4 3 3 3 2 2 1 2 1 1 3 6 7 8 8 8 7 10 12 12 13 13 14 16 13 11 12 13 14 17 17 12 16 18
6 7 6 5 7 4 10 9 4 3 3 3 3 6 2 2 7 7 5 2 2 4 2 4 5 5 5 5 4 2 1 2 4 4 3 2 1 1 2 4 6 6 6 4 2 2 3 3 3 3 4 5 5 4 3 2 1 2 4 4 3 2 2 6 5 7 7 7 8 11 12 12 12 12 12 13 12 12 12 11 12 13 13 15 16 16 16
11 9 7 5 2 3 3 2 3 3 2 2 5 6 8 8 5 6 5 6 8 7 7 5 6 8 6 4 4 3 4 4 4 3 1 1 1 1 1 3 2 4 5 4 2 3 2 3 3 3 4 4 5 5 6 6 4 5 5 3 2 1 2 6 6 7 9 8 9 12 12 12 12 12 12 11 12 13 12 12 12 12 12 13 15 15 16
10 8 4 2 2 1 2 2 5 6 5 7 8 4 4 2 4 5 7 6 5 4 7 8 6 5 5 5 4 4 4 5 4 2 1 2 2 1 2 3 2 3 3 4 2 3 2 1 2 4 4 5 6 5 4 3 3 4 3 4 1 1 4 5 5 7 7 8 11 11 11 11 11 13 13 10 10 10 11 10 11 11 12 13 15 15 13
18 15 17 15 15 13 9 9 6 4 4 2 2 1 2 2 3 3 4 3 3 5 8 8 6 5 5 5 4 4 4 3 2 3 5 5 3 2 4 5 3 2 4 3 2 3 3 3 4 4 3 4 4 4 3 5 4 4 4 3 2 3 5 4 5 7 8 8 8 8 10 10 12 11 9 9 10 10 10 10 11 12 14 15 16 14 13
3 5 3 4 2 2 7 9 10 9 6 5 4 3 4 3 3 3 3 7 9 10 5 4 5 5 5 5 4 4 5 7 7 6 7 6 5 3 5 4 3 2 4 4 3 4 5 4 3 3 4 3 3 2 4 5 4 3 4 4 1 3 4 7 5 6 7 8 7 10 10 9 9 6 7 9 9 10 12 13 14 15 15 15 15 14 14
4 6 8 5 4 3 2 5 6 8 9 9 8 6 6 5 5 5 7 7 3 5 6 6 5 6 4 4 4 4 6 9 7 6 5 6 5 1 3 2 1 1 2 5 6 5 3 3 3 4 4 2 3 3 4 4 3 3 3 3 3 3 3 5 6 6 7 8 8 9 10 7 6 8 9 9 11 11 11 11 12 12 14 14 14 15 14
4 10 8 11 11 8 6 4 6 7 8 8 6 5 4 4 7 6 2 4 5 6 7 8 6 5 8 10 6 4 4 6 8 9 10 5 1 2 3 3 1 4 1 1 7 3 3 4 4 3 3 2 2 1 3 2 2 3 4 2 1 2 5 6 7 6 7 6 8 8 7 7 7 7 8 9 10 10 9 10 10 9 11 12 13 14 15
3 3 9 9 7 6 6 6 6 5 3 1 2 4 6 8 6 6 6 5 6 7 7 8 8 6 3 2 2 4 6 5 5 7 5 5 6 3 2 2 4 4 4 8 5 2 4 3 4 3 2 2 4 3 4 4 1 3 3 4 3 2 2 4 6 5 7 8 7 8 7 7 5 4 5 7 8 9 9 9 9 10 11 11 12 13 13
4 4 5 5 5 6 3 2 4 5 6 8 7 3 3 5 4 5 5 6 4 5 7 6 4 4 3 3 6 5 7 7 7 6 6 6 4 6 9 10 10 12 11 3 1 3 3 2 2 3 3 2 4 4 3 4 2 2 2 3 4 5 5 5 6 6 8 9 9 8 7 7 6 4 4 5 6 8 8 9 9 8 9 9 10 11 12
3 2 2 1 3 2 2 4 5 5 6 5 7 8 6 6 6 6 5 4 5 7 7 7 6 6 5 6 6 9 8 6 8 7 7 5 4 3 6 9 11 12 11 8 6 6 5 5 4 7 4 3 4 4 4 5 3 4 4 4 4 4 5 6 6 6 7 8 8 6 7 7 6 5 4 3 4 6 7 7 8 8 7 7 8 9 10
2 2 2 1 2 1 1 3 6 5 4 4 6 5 5 8 7 6 7 10 8 8 8 9 8 6 7 10 11 8 3 4 7 8 7 6 4 5 4 12 9 5 8 11 9 8 7 6 6 5 2 4 3 2 1 3 1 1 3 3 2 2 2 3 4 3 7 9 10 10 9 9 8 7 6 5 4 4 3 3 4 5 6 7 8 8 9
1 1 1 2 3 5 5 4 2 2 4 6 5 3 5 5 10 13 12 8 7 8 9 9 9 10 7 5 4 3 3 4 5 6 10 13 12 9 4 12 7 6 7 9 9 8 7 7 6 4 3 4 4 4 2 3 1 1 1 2 3 2 3 3 3 3 6 8 9 9 9 9 9 8 8 7 6 5 4 4 4 5 5 6 7 7 8
2 3 3 4 3 3 3 5 4 5 3 4 5 7 8 7 7 4 3 6 8 8 9 9 8 6 4 4 3 3 6 4 5 6 7 10 6 6 12 11 4 3 6 8 8 8 8 8 8 7 5 5 4 4 4 4 3 3 3 5 4 4 4 3 3 4 6 7 7 8 10 10 10 9 10 9 9 6 5 5 4 4 4 5 5 6 7
4 4 3 5 5 6 3 2 2 1 2 6 2 3 6 6 7 9 8 8 8 9 10 10 9 9 8 6 5 7 9 5 7 7 5 8 8 11 14 16 14 8 7 6 8 9 9 8 9 8 8 7 6 6 6 4 2 3 1 3 3 3 2 1 1 2 4 6 7 9 9 10 9 10 10 10 9 6 5 5 5 4 4 4 4 6 6
5 6 5 6 4 2 3 4 4 7 7 3 2 2 5 6 7 7 7 8 9 10 8 9 10 11 10 9 11 13 12 9 9 11 6 7 6 13 6 11 15 10 10 9 8 9 9 8 9 8 7 7 7 7 6 5 4 4 4 3 3 3 2 2 2 3 4 6 6 8 9 10 11 11 10 10 8 7 7 7 5 5 5 4 5 6 6
5 7 5 3 3 6 7 5 5 2 2 3 4 5 4 6 7 7 7 8 8 11 13 13 12 12 12 12 10 6 5 5 6 10 12 12 12 9 3 6 7 7 10 10 8 9 10 8 9 9 8 8 7 8 7 7 5 6 4 3 4 4 5 5 5 5 6 6 7 8 9 9 9 11 12 10 10 8 6 6 7 6 5 4 4 5 6
5 4 4 6 8 4 1 2 1 1 1 1 2 6 7 5 7 8 9 9 9 8 8 8 10 11 9 9 10 7 8 9 9 10 13 12 9 7 5 4 4 5 8 10 10 10 9 9 9 9 9 8 8 8 7 7 7 7 7 5 5 7 7 7 7 6 7 7 6 7 6 9 9 9 8 7 7 7 7 6 4 4 7 7 5 5 5
3 5 6 5 7 5 1 1 2 3 4 9 8 9 7 2 4 6 5 5 6 6 5 6 8 8 7 8 9 10 11 10 6 13 9 11 10 8 7 8 7 6 8 6 8 6 7 8 8 8 8 7 9 8 7 7 7 7 7 7 7 8 9 8 7 7 7 7 7 7 8 8 8 8 8 9 8 7 7 7 6 4 3 5 6 5 4
3 4 4 2 3 2 2 2 2 3 7 7 4 9 7 4 2 3 5 6 5 5 6 6 6 8 8 9 9 11 10 8 13 16 7 9 9 10 9 6 7 8 8 8 8 7 7 8 8 7 7 7 8 8 8 7 7 8 8 8 9 9 8 9 8 7 8 8 9 9 8 9 9 9 8 8 8 7 8 7 7 7 6 6 6 7 5
3 1 4 4 3 4 5 5 6 10 9 4 8 8 2 1 2 8 7 8 9 5 4 5 7 8 7 7 8 8 7 10 11 9 3 4 5 5 7 8 8 8 9 10 7 6 5 7 6 7 8 8 8 8 8 7 7 8 9 8 8 7 8 7 4 6 8 8 8 9 9 9 9 9 8 6 6 6 6 6 6 6 6 6 7 6 6
3 3 5 5 6 5 4 6 8 6 5 7 6 2 4 5 8 7 4 6 3 4 7 8 7 7 7 6 6 5 6 6 7 7 9 6 4 5 6 7 9 9 10 10 8 9 6 7 7 7 8 7 8 8 7 8 8 8 7 7 6 7 6 7 7 8 9 8 8 9 9 8 9 9 9 8 7 6 7 7 8 7 7 7 7 6 5
6 5 5 3 4 4 5 6 6 6 6 5 4 3 4 6 7 7 3 4 9 9 9 5 7 10 7 10 9 6 2 4 5 5 5 5 7 7 6 6 8 8 9 9 8 7 7 8 7 7 6 8 7 7 6 6 7 6 6 6 5 5 6 6 6 6 6 8 8 8 8 9 8 9 8 7 7 9 8 8 8 8 6 7 6 6 7
Wind_Speed
2 3 4 3 3 4 4 4 6 10 9 9 4 1 2 3 2 7 7 8 8 6 5 6 8 9 10 10 9 8 7 7 8 10 12 14 11 10 12 10 10 13 12 11 12 11 10 10 10 9 7 7 7 7 5 4 5 5 5 4 5 4 4 6 8 8 6 6 7 6 5 7 4 0 0 1 1 2 3 3 4 3 4 4 4 5 4
5 6 6 5 5 3 4 8 7 7 8 9 7 5 2 1 3 6 12 10 8 4 4 6 7 8 10 9 7 8 10 9 8 9 11 12 10 11 11 9 10 11 11 12 12 12 12 12 10 10 9 8 7 7 6 4 5 3 4 4 5 5 4 3 2 2 2 7 9 7 5 5 9 8 6 5 4 4 3 1 2 2 3 3 3 4 5
4 6 6 5 5 4 5 7 10 10 7 8 9 6 7 9 9 11 11 10 6 4 5 7 7 6 8 10 13 11 8 8 9 12 13 12 10 9 10 11 10 10 12 12 13 13 12 12 11 11 10 10 10 9 7 6 5 4 4 5 5 5 5 5 5 6 5 4 2 4 3 2 2 4 5 3 4 4 2 2 3 3 2 2 3 3 4
2 3 6 4 2 4 7 7 12 10 8 7 5 4 4 3 7 10 12 6 3 4 6 7 7 9 12 13 12 11 10 10 10 12 11 11 9 10 8 8 10 14 15 13 12 12 12 12 12 12 11 11 12 11 10 10 9 8 7 7 7 6 6 5 5 6 6 6 6 5 4 3 1 1 2 2 2 2 1 2 3 4 2 0 1 2 2
1 2 3 5 2 3 1 5 5 7 3 0 0 2 4 4 3 10 10 5 6 8 5 10 9 10 10 11 9 9 10 10 11 11 10 9 8 8 8 11 14 15 12 10 11 12 11 11 12 12 10 13 12 11 11 9 10 11 11 10 9 9 8 7 7 5 5 5 4 5 4 4 3 3 3 3 2 2 3 4 2 2 2 1 1 1 2
1 2 4 2 3 3 2 2 2 3 3 2 6 4 4 6 6 2 5 8 10 9 8 12 10 11 9 8 8 7 6 7 10 10 8 8 7 8 10 9 11 10 9 9 11 12 12 11 11 10 10 13 12 11 11 12 13 11 12 12 11 10 10 9 7 6 5 6 5 5 3 4 4 4 3 3 4 4 3 1 0 1 2 2 1 1 1
2 0 1 2 3 0 0 1 2 2 6 8 11 8 9 8 11 12 12 10 9 8 8 9 12 11 11 11 10 9 8 7 6 9 9 8 6 8 8 10 10 9 9 11 11 12 11 11 10 10 12 12 12 12 12 13 12 13 12 12 12 11 11 11 11 10 9 8 6 5 4 3 4 4 4 5 5 3 2 1 1 1 2 2 2 2 2
2 1 1 2 1 1 0 1 1 1 1 1 1 9 9 8 5 11 11 11 11 10 11 10 9 12 12 12 11 10 9 9 7 7 9 7 6 9 7 10 10 10 9 10 11 10 8 9 11 11 11 9 13 13 12 13 13 13 12 13 12 11 12 11 11 10 9 10 10 9 7 6 7 7 7 6 5 4 3 4 4 3 4 3 2 2 4
3 2 2 2 0 2 1 2 3 3 2 3 1 4 3 4 2 2 13 11 11 10 9 10 9 8 10 12 9 9 9 8 8 8 8 6 5 7 8 9 9 8 8 9 9 9 10 11 11 10 9 9 11 13 14 12 13 13 13 13 12 11 11 11 11 11 11 11 10 10 9 9 9 8 8 7 6 5 4 4 1 2 2 2 3 3 3
3 4 3 2 1 2 2 2 1 0 2 1 3 1 3 3 6 4 9 12 10 9 8 8 7 4 12 9 5 8 7 6 7 6 6 5 4 5 7 8 8 8 8 9 10 11 12 13 11 9 9 10 12 13 13 12 12 11 12 12 10 10 10 9 9 9 9 9 9 10 10 10 9 7 7 6 7 4 4 2 3 3 1 1 0 1 3
3 2 4 1 2 0 2 3 4 3 2 3 2 2 3 1 5 6 7 10 8 11 10 5 2 4 6 3 1 2 4 5 6 5 5 5 5 6 6 7 8 7 7 8 9 9 12 13 10 10 10 11 12 12 11 11 11 12 12 10 9 9 8 7 7 8 8 9 8 8 8 9 7 8 8 7 6 6 6 4 4 4 4 3 3 3 3
1 4 3 2 0 1 2 4 5 6 3 2 1 2 2 3 6 7 7 10 9 8 5 3 2 5 8 6 4 4 2 5 4 3 4 5 6 7 7 7 6 6 5 7 10 12 12 9 6 9 10 12 12 10 10 10 12 11 10 9 8 7 7 8 7 8 8 9 7 8 8 8 9 8 6 7 8 8 8 7 7 7 6 6 5 4 4
4 5 1 2 1 1 2 6 9 9 3 1 3 2 3 5 7 8 7 9 7 5 4 0 4 3 5 9 8 5 6 6 6 5 5 5 5 7 8 8 7 9 10 11 11 10 8 7 7 7 9 11 11 9 9 11 11 8 7 8 8 7 7 9 10 10 9 9 9 8 7 7 7 7 8 8 7 9 8 7 7 8 9 8 7 6 6
2 1 4 1 1 1 4 9 9 6 1 1 2 1 2 9 9 8 9 9 5 4 3 7 9 10 10 9 7 7 6 6 5 5 5 6 8 8 8 8 9 10 10 11 10 10 8 8 7 7 9 12 9 8 10 11 7 5 6 6 4 5 7 8 8 9 9 8 8 7 7 7 8 7 5 5 6 6 6 7 8 8 7 7 7 7 7
1 3 3 1 1 1 7 13 5 2 1 1 0 3 4 7 10 9 6 5 5 8 10 10 12 11 9 8 8 6 5 7 6 6 7 8 8 8 8 10 8 9 10 11 10 9 7 8 8 8 11 12 9 9 10 7 4 4 4 4 4 5 6 7 7 7 7 7 6 5 6 6 7 7 6 7 7 7 7 6 6 7 7 6 6 6 6
2 2 2 0 2 7 9 4 0 3 2 2 1 1 8 5 7 7 7 5 6 7 13 12 10 10 11 9 7 7 6 5 5 6 6 6 7 7 6 6 6 9 10 9 9 8 8 8 8 7 9 10 9 9 9 4 3 3 4 4 5 6 6 6 6 5 5 5 5 5 6 5 6 6 7 6 7 6 6 6 6 7 6 6 6 7 7
2 2 2 3 3 5 6 3 3 4 6 6 6 6 5 8 5 4 8 8 7 7 12 11 12 11 8 8 6 8 5 5 6 7 6 5 6 7 7 7 7 7 8 8 8 9 7 8 7 7 6 9 9 8 5 4 4 4 3 4 6 6 6 6 6 5 4 5 5 5 5 5 6 6 6 6 7 7 6 7 7 7 6 6 6 6 6
8 9 4 1 4 6 7 7 7 9 9 10 9 9 10 8 7 5 7 9 9 8 8 13 8 8 8 9 7 6 5 5 5 5 6 6 6 6 6 7 7 6 7 8 9 9 8 7 7 6 7 7 8 3 2 3 3 3 4 6 6 6 5 5 5 5 6 5 5 5 5 4 5 4 4 4 4 4 5 5 5 5 5 5 5 5 5
2 4 6 6 5 5 8 10 10 10 10 9 10 12 10 10 9 10 8 8 9 9 8 11 11 8 6 8 5 4 5 5 5 6 6 4 4 5 6 3 4 6 6 7 7 7 7 6 6 6 6 6 4 3 4 4 4 5 6 6 6 6 7 6 6 6 7 6 6 6 6 5 4 4 5 5 5 5 4 4 4 3 2 2 3 3 3
4 3 1 4 5 6 6 5 9 11 11 12 11 10 9 10 10 10 8 8 10 8 9 8 9 7 5 9 6 5 5 5 5 5 6 6 6 4 3 3 5 6 6 6 5 5 5 5 5 5 5 5 4 4 4 4 3 5 6 6 6 6 7 5 5 6 6 8 8 6 6 5 5 5 5 4 5 5 5 5 5 5 6 6 5 5 6
6 6 4 5 7 9 7 7 6 6 7 10 10 10 11 11 13 12 11 9 7 8 7 7 8 8 5 6 7 7 5 5 5 5 5 5 5 4 4 3 4 5 4 4 4 4 3 3 3 4 4 4 5 5 4 4 3 5 5 5 6 6 6 6 7 6 6 6 6 6 7 7 6 4 5 5 5 4 3 4 3 3 3 4 3 3 4
1 2 5 4 4 3 4 5 6 7 8 9 8 7 8 9 9 9 9 6 4 5 5 8 8 9 6 3 5 6 5 5 5 4 4 4 4 4 3 4 4 4 3 4 4 3 1 1 2 2 3 3 3 3 4 4 4 5 4 5 6 6 5 6 6 6 6 6 6 6 6 6 8 7 4 3 1 2 4 4 4 4 1 2 4 4 4
3 4 2 2 5 6 1 2 2 3 3 7 9 8 7 5 7 9 10 8 5 4 3 2 8 7 7 4 4 6 4 4 4 4 6 6 4 4 4 5 4 4 4 4 4 3 1 0 0 1 2 3 3 4 3 3 3 3 4 5 5 5 5 5 5 5 6 6 6 6 6 7 6 8 10 5 6 7 7 8 7 6 5 6 6 4 3
3 2 4 1 2 5 3 2 2 3 3 7 6 4 4 6 6 5 6 7 9 4 4 3 3 8 5 4 5 6 3 3 4 3 2 2 3 3 3 5 5 5 4 4 4 4 2 1 0 1 1 2 3 3 3 3 3 4 4 4 5 4 4 3 4 5 4 5 6 6 6 6 7 7 7 10 8 7 11 13 11 9 9 11 10 9 7
4 2 3 3 5 6 3 3 2 2 1 5 8 6 6 5 3 4 7 4 5 9 6 5 2 3 8 4 4 7 5 3 2 4 3 2 1 3 3 4 4 4 4 3 3 3 2 1 1 0 1 3 3 2 3 3 3 4 4 4 4 4 4 4 4 5 5 5 5 5 6 6 6 6 6 6 8 12 8 8 10 11 11 13 14 14 13
8 7 7 5 5 4 2 4 4 2 2 3 4 1 1 4 5 5 6 7 5 5 7 6 5 1 4 7 4 4 4 4 3 2 3 3 2 2 2 3 3 3 3 3 2 2 1 1 0 1 2 2 3 3 2 3 4 4 3 3 3 3 3 4 5 5 5 5 5 5 4 5 5 5 6 6 6 6 9 11 7 4 4 11 13 14 13
9 9 10 9 6 2 1 5 5 4 1 1 4 4 3 2 4 4 3 3 3 1 4 5 4 4 2 2 4 3 6 4 3 2 3 3 4 3 3 2 3 3 3 3 1 0 2 2 2 3 3 3 3 2 3 2 3 3 3 3 3 3 4 4 4 4 4 4 5 5 5 6 6 5 5 5 4 6 7 7 8 10 10 10 11 11 10
6 3 4 8 4 6 3 1 2 3 2 3 5 5 3 3 4 5 4 4 3 3 3 3 5 6 4 2 5 4 3 4 5 3 3 4 2 2 3 3 3 3 3 2 1 1 1 1 2 3 3 3 3 3 2 2 3 3 3 3 3 4 3 3 3 4 4 5 5 5 5 5 4 4 5 5 6 7 7 7 7 8 8 8 7 8 10
3 3 3 1 5 4 4 4 4 3 3 3 3 3 5 5 2 4 3 3 2 3 3 2 1 1 5 4 2 5 4 3 4 4 4 1 1 2 3 3 3 3 3 2 1 1 1 2 3 3 3 3 3 3 2 3 3 3 3 3 3 3 3 2 2 3 4 4 5 5 4 5 5 5 6 7 7 8 7 8 8 8 7 8 9 9 9
2 3 3 4 4 6 7 5 5 2 3 2 4 2 1 5 5 2 2 1 2 4 2 1 2 3 2 3 2 4 6 6 5 3 2 1 1 2 3 3 3 2 2 2 1 0 2 3 3 3 3 3 3 3 2 2 2 2 2 1 1 1 1 1 3 3 5 5 5 5 6 6 6 6 6 7 7 6 6 7 7 8 9 9 8 8 9
3 4 5 3 4 3 6 5 2 3 2 2 2 3 1 1 3 4 3 1 1 2 1 2 3 3 3 4 3 1 0 1 2 3 2 2 1 1 2 3 4 4 4 3 1 1 2 2 2 1 2 3 3 2 1 1 1 1 3 3 2 1 1 4 2 3 4 4 5 6 6 6 6 6 6 6 6 6 6 6 6 7 7 8 8 8 8
6 6 5 3 1 2 2 2 2 2 2 1 3 4 5 5 4 4 4 4 4 4 4 3 4 5 4 3 2 2 2 2 2 2 1 0 0 0 1 2 2 3 3 2 2 2 1 2 2 2 2 3 3 4 4 3 2 2 3 2 1 0 1 3 3 4 5 5 5 6 6 6 6 6 6 6 6 7 7 6 6 5 6 7 7 7 8
5 3 1 0 0 0 0 1 3 4 4 4 4 2 2 2 2 4 4 3 3 2 4 5 4 3 3 3 3 3 3 3 2 1 0 1 1 1 1 1 0 2 2 2 1 2 1 0 1 2 2 3 4 3 3 2 2 2 2 2 1 0 3 2 3 4 5 5 6 5 5 5 5 6 6 5 6 5 5 6 6 6 7 7 7 8 7
10 8 9 9 9 7 5 5 3 3 3 1 1 1 1 1 1 1 3 2 2 4 5 5 3 3 3 3 3 3 3 2 0 2 3 3 2 1 2 3 1 1 3 2 1 2 2 2 2 2 2 2 3 2 2 3 3 3 2 2 1 1 3 2 3 4 5 5 5 5 5 5 5 5 5 5 5 5 6 5 6 7 7 7 8 7 8
1 1 1 2 1 0 3 4 5 5 4 3 2 2 3 1 1 1 2 4 5 5 3 3 3 3 4 3 3 2 3 4 5 4 4 4 3 1 2 2 2 1 2 3 2 2 3 2 2 2 2 2 2 1 2 2 1 1 2 2 0 0 2 4 3 4 5 4 4 5 5 4 4 4 4 5 5 6 6 7 7 8 7 7 7 7 8
2 3 4 3 3 2 1 3 3 4 4 4 4 4 4 3 3 3 4 4 2 3 4 4 4 3 3 3 2 3 5 6 5 4 4 4 3 0 1 0 0 0 1 3 3 3 2 2 3 4 0 0 1 2 1 2 0 1 1 2 1 0 1 3 4 4 4 4 4 5 4 4 3 4 5 5 5 6 5 6 6 6 6 6 6 7 7
2 6 5 5 6 5 4 3 3 4 4 4 3 3 3 3 4 4 1 2 3 4 5 5 4 3 5 6 5 3 3 4 4 5 6 2 1 1 1 1 0 2 0 0 3 1 2 2 3 3 1 1 1 1 0 2 1 1 1 1 0 1 3 4 4 4 4 4 4 4 4 4 3 3 4 4 5 5 5 5 5 5 6 6 6 6 7
1 2 5 6 4 4 4 3 3 3 2 1 1 2 3 4 3 4 4 3 3 3 4 4 4 3 1 1 1 3 4 3 4 4 3 3 3 2 1 1 3 2 2 4 2 1 2 2 3 2 0 1 2 2 2 3 1 0 0 2 2 1 1 2 4 3 4 4 4 3 3 3 2 1 2 3 4 4 4 4 5 5 5 6 6 6 6
2 2 2 1 3 4 2 1 1 2 4 4 4 2 2 3 2 3 3 3 3 3 4 3 3 2 2 2 4 4 4 4 4 4 4 4 3 4 6 6 6 7 6 2 1 2 1 1 1 2 2 1 2 2 2 2 1 1 1 1 2 3 3 3 3 3 4 5 4 4 3 3 3 2 1 1 3 3 4 4 4 4 4 5 5 6 6
2 1 1 1 2 1 1 1 2 4 4 3 4 4 4 4 4 4 3 2 3 4 4 4 4 4 3 4 4 5 5 4 5 5 5 4 3 2 3 5 7 7 7 5 3 3 3 4 2 4 2 2 2 2 2 2 2 2 2 2 1 2 2 3 3 3 4 5 5 4 3 3 3 2 1 0 1 2 2 2 3 3 3 3 4 4 5
1 1 1 1 1 0 0 1 4 3 2 3 4 3 3 5 4 3 4 5 4 4 5 5 5 4 4 6 6 4 2 2 4 5 4 4 2 3 3 6 5 3 5 6 5 5 5 4 4 3 1 1 1 0 1 2 1 1 2 2 2 1 1 2 3 2 4 5 6 5 4 4 4 3 2 2 1 1 1 1 1 2 3 3 4 4 4
1 0 0 1 2 3 4 3 1 1 2 3 3 2 3 3 5 8 6 4 4 5 6 6 7 7 4 3 3 2 2 3 3 3 5 7 7 4 2 6 4 3 5 6 6 5 5 4 4 3 2 2 1 3 1 1 0 0 1 1 2 1 1 2 2 2 4 5 5 5 4 4 4 4 3 3 2 2 2 1 1 2 3 3 4 4 4
1 1 1 2 2 2 2 3 3 3 2 3 3 4 5 4 5 3 2 4 5 5 5 5 5 4 3 3 2 2 3 2 3 4 4 6 4 3 6 6 2 1 5 5 5 5 5 5 5 4 4 3 2 3 3 2 1 1 2 3 3 2 2 2 2 3 4 4 4 4 5 5 5 4 4 4 4 2 2 2 2 1 2 2 2 3 4
2 2 2 3 3 3 1 0 0 0 1 3 1 2 4 4 4 5 5 4 5 5 6 6 6 6 5 4 3 5 6 3 5 4 3 5 5 6 9 9 8 6 6 4 5 5 5 5 5 6 7 6 5 5 4 2 1 1 0 1 1 1 1 1 0 1 3 4 4 5 5 5 4 4 5 5 4 3 3 2 2 2 1 2 2 2 3
4 3 3 4 3 1 2 3 3 4 4 2 1 1 3 4 4 4 4 4 5 6 5 5 6 6 6 5 7 8 7 5 5 6 3 4 4 6 3 7 8 6 7 6 5 5 5 5 6 7 6 6 6 6 4 3 3 3 2 2 1 2 2 1 1 2 3 4 4 5 5 5 5 5 5 5 5 4 3 3 2 2 3 2 2 3 3
4 4 2 1 2 4 3 3 3 1 1 2 3 3 3 4 4 4 5 5 5 6 8 8 7 7 7 7 6 4 3 3 4 6 6 6 6 4 2 4 4 4 7 8 5 5 6 7 7 7 7 7 6 5 4 4 4 4 3 2 2 3 4 4 3 3 4 4 4 5 5 5 5 5 5 5 5 4 3 4 4 3 2 1 1 2 3
3 3 2 3 4 3 1 1 0 0 0 0 2 4 4 3 4 5 5 5 5 5 5 5 6 7 5 6 6 4 4 5 6 6 7 7 6 5 4 4 4 4 5 6 6 6 6 6 6 8 7 7 6 4 4 4 4 4 4 4 4 4 4 4 4 4 4 4 4 4 4 6 5 5 5 5 4 4 3 3 2 1 2 4 2 2 2
1 3 3 3 4 3 1 1 1 1 2 5 5 5 4 2 2 3 3 3 4 4 3 4 5 5 4 5 5 6 6 5 3 7 5 6 6 5 4 5 5 6 6 5 6 5 6 7 7 7 7 6 5 4 5 4 4 4 4 5 5 5 5 5 5 5 5 5 5 4 4 4 4 5 4 4 4 4 3 3 3 2 1 2 3 2 2
2 2 2 1 2 1 1 1 1 2 4 4 3 5 4 2 1 2 3 3 3 4 4 4 4 5 4 5 5 6 5 4 7 7 3 5 5 6 5 4 6 7 6 5 5 5 6 6 6 6 6 5 5 5 4 4 4 5 5 5 6 5 5 5 5 4 5 5 5 5 5 5 5 5 5 5 5 4 5 4 3 3 3 2 2 3 2
1 0 2 2 2 2 2 2 4 6 5 3 4 5 1 1 1 5 4 5 5 3 3 4 5 5 5 4 4 5 4 5 7 6 2 2 2 3 4 5 5 7 7 6 5 4 5 6 5 5 5 5 5 5 5 5 4 5 5 5 5 4 5 5 4 4 5 5 5 5 5 5 5 5 5 3 3 3 4 3 3 4 5 4 3 3 3
2 2 3 3 3 3 2 4 4 4 3 4 4 1 2 3 5 4 2 3 2 2 4 5 4 4 4 4 4 3 4 4 5 5 6 4 3 3 4 4 5 6 6 6 5 5 4 4 4 4 5 5 5 5 4 5 5 5 5 4 4 5 4 5 5 5 5 5 5 5 5 4 5 5 5 4 4 4 4 4 4 4 3 3 3 3 2
3 3 3 2 2 3 3 4 3 3 4 3 3 2 3 3 4 4 2 3 5 6 6 4 5 6 4 6 6 4 1 3 3 3 3 3 3 3 3 4 4 5 5 5 5 4 4 4 4 5 5 5 4 4 5 5 5 4 3 4 3 3 4 4 4 3 3 5 4 4 5 5 4 5 4 4 4 6 5 4 4 4 3 2 3 3 3
Wind_Direction
32 40 30 28 93 90 106 65 27 13 351 15 57 154 124 111 121 186 169 154 124 78 56 67 72 83 93 79 73 67 57 55 60 60 58 56 49 45 46 37 36 43 35 38 31 25 23 26 33 43 49 55 57 60 67 100 95 111 128 124 119 129 155 161 157 150 138 121 117 108 121 118 108 94 83 274 256 236 216 182 156 160 146 150 145 129 121
33 14 17 17 92 120 58 36 31 22 20 33 42 55 3 90 132 132 132 104 74 57 66 72 89 96 94 88 79 70 60 60 67 66 58 53 48 48 47 38 45 47 46 48 44 38 29 29 26 34 42 48 55 59 56 66 108 124 113 78 63 62 58 46 34 19 114 150 150 143 149 165 164 183 197 201 204 225 230 140 106 112 127 132 147 155 147
355 353 356 26 35 87 73 26 28 24 18 47 33 53 45 62 70 93 98 93 83 41 79 94 93 92 88 80 75 70 68 70 67 69 70 64 53 48 52 54 47 53 55 52 52 46 37 35 35 39 35 36 37 38 42 42 46 53 65 71 52 52 52 46 42 59 43 7 60 115 126 141 192 178 179 177 196 215 197 108 100 85 100 141 161 170 181
323 359 353 343 29 80 90 43 15 8 14 40 355 16 328 307 148 122 104 96 126 125 96 75 58 71 77 82 78 76 72 64 64 66 65 67 57 51 43 48 59 59 52 46 42 41 42 44 44 42 39 42 42 35 31 32 36 41 48 57 62 53 56 65 73 54 38 43 44 46 57 39 9 126 123 132 171 209 180 113 98 98 104 150 150 171 183
256 307 327 325 342 33 360 16 334 327 309 257 16 2 353 353 144 133 154 169 118 128 122 97 68 70 70 64 57 71 70 64 65 63 58 55 52 46 40 50 59 60 50 46 49 46 40 41 45 39 44 55 45 35 42 36 47 48 47 43 44 45 48 57 62 80 81 82 71 69 82 90 69 38 58 60 49 33 17 23 76 105 119 118 184 207 191
200 331 315 322 69 189 232 319 297 264 283 322 70 23 4 38 55 77 61 106 119 118 121 108 107 81 66 73 63 47 53 70 77 71 59 54 52 50 53 49 58 55 56 52 52 50 49 47 47 52 47 62 57 47 49 48 49 47 52 46 46 42 41 37 39 49 73 78 74 51 35 83 101 102 93 94 103 98 87 76 91 113 110 142 142 93 54
144 275 3 70 180 242 253 256 19 12 61 84 85 62 46 73 103 97 91 89 89 97 93 98 102 98 83 70 64 51 41 40 58 80 71 55 46 57 54 56 55 56 60 61 55 47 39 40 44 50 53 54 63 53 48 53 48 52 50 51 46 43 47 43 44 42 45 47 42 46 47 21 51 52 55 50 44 41 83 126 132 144 156 135 103 117 147
64 48 42 137 232 269 317 66 312 274 224 347 57 62 39 40 70 111 106 112 109 107 103 96 101 103 99 77 57 50 42 34 38 53 63 36 38 62 57 65 58 57 53 64 66 57 44 42 44 43 48 48 64 63 54 56 52 49 49 49 40 36 43 42 45 45 49 52 45 36 29 29 27 26 28 30 37 21 29 33 44 67 63 76 122 175 187
139 144 78 117 302 161 94 12 14 11 351 352 57 99 16 14 354 77 121 117 112 109 109 115 117 111 88 69 44 38 53 37 33 51 62 63 32 61 69 70 70 63 57 57 65 72 62 51 46 43 40 43 57 63 59 53 55 50 47 48 38 29 34 37 40 41 43 48 50 47 45 40 31 28 26 20 25 15 42 40 26 71 68 122 184 198 227
122 135 90 92 21 199 167 116 4 242 265 266 246 109 71 34 68 90 123 124 122 112 115 127 136 134 79 59 15 350 16 39 60 50 57 59 63 61 75 72 70 66 66 63 54 60 65 59 53 46 44 47 51 56 56 53 52 49 47 46 40 36 32 29 41 47 46 46 46 42 43 44 32 28 32 37 33 14 64 49 356 70 186 113 206 269 349
80 80 120 157 174 359 58 323 319 292 281 222 203 63 63 356 120 119 117 111 118 126 133 122 4 87 89 98 56 315 330 23 25 54 58 69 72 67 67 74 74 68 63 70 72 68 65 61 51 56 59 57 57 54 49 48 50 49 41 33 30 33 33 30 35 50 59 59 55 53 48 44 38 30 29 29 17 28 37 44 38 360 26 39 7 16 338
62 136 93 159 202 154 346 307 307 308 298 138 84 70 254 141 139 135 127 127 133 131 122 125 93 104 126 157 173 189 48 55 29 41 62 62 66 71 73 69 73 70 64 70 60 55 56 55 53 66 71 68 63 60 60 59 53 42 34 21 14 20 28 30 32 36 45 53 47 49 50 46 39 36 20 32 30 39 27 30 31 26 19 23 16 7 347
63 76 92 27 349 322 342 318 315 310 262 147 84 186 215 145 127 133 134 133 135 132 119 136 100 11 89 120 134 131 107 97 76 63 61 59 55 63 59 61 64 63 54 54 54 50 48 45 43 50 68 70 65 61 63 61 54 49 47 42 19 13 26 31 31 31 27 35 39 35 41 50 46 31 29 27 31 42 38 28 35 32 26 16 18 5 348
57 110 101 172 190 272 337 317 309 282 332 83 222 238 155 136 128 134 141 133 112 95 95 105 99 102 102 106 104 104 98 96 96 88 80 71 63 56 60 60 65 69 63 59 57 51 42 47 51 57 66 69 65 59 61 60 50 40 49 50 39 30 39 42 42 37 33 27 26 24 19 27 49 46 27 37 41 45 46 43 41 34 23 16 13 9 8
32 27 70 45 62 221 21 327 322 357 109 252 310 122 113 132 130 133 115 105 119 118 100 97 105 107 102 99 100 94 95 91 85 78 65 60 58 49 52 55 53 75 72 62 55 48 37 41 45 53 68 68 63 58 57 44 30 45 50 51 53 55 51 48 44 44 42 39 37 33 31 26 37 38 24 33 35 39 46 50 49 41 26 15 14 9 12
118 47 66 91 286 305 325 326 103 327 328 312 350 141 126 115 124 123 107 89 110 118 117 115 101 102 102 93 94 88 82 84 77 66 64 66 67 69 63 69 66 72 75 70 65 49 41 39 41 40 63 68 58 55 42 2 27 41 50 52 55 51 46 49 53 48 45 44 40 37 37 37 42 42 30 26 33 35 35 46 43 39 25 14 17 17 1
98 107 83 7 329 318 325 354 33 37 33 56 65 57 77 109 72 84 105 108 101 113 113 106 115 109 104 108 105 104 97 83 74 71 66 73 82 80 75 67 68 69 76 77 73 59 43 42 40 43 46 72 64 54 9 7 23 38 47 53 57 50 43 34 29 32 44 46 46 41 36 38 46 39 36 28 33 18 29 37 38 41 22 15 21 2 5
98 72 56 337 4 35 41 39 38 52 47 41 54 65 78 55 70 71 105 108 109 106 111 111 89 101 119 109 101 98 95 91 78 85 81 78 80 77 78 72 64 74 72 65 64 62 42 33 39 42 44 55 63 20 349 16 19 36 49 54 53 48 42 40 28 23 36 30 37 40 37 39 51 49 51 49 59 34 33 35 42 44 26 19 6 4 354
11 60 347 29 40 52 67 68 61 60 57 56 60 64 61 70 75 77 68 91 94 96 91 98 111 113 111 101 97 103 97 81 82 84 87 65 65 85 82 62 77 66 68 60 55 57 49 19 31 33 44 43 49 27 23 8 20 37 48 48 47 37 29 23 23 26 35 27 20 23 25 24 33 41 31 35 47 56 51 36 25 27 47 25 6 356 343
64 101 61 72 68 60 47 61 80 78 75 73 71 76 75 76 73 73 77 84 86 90 91 102 105 103 109 113 115 105 96 99 93 92 95 99 80 55 71 76 86 78 77 84 74 64 50 17 24 33 37 32 21 22 18 14 21 44 42 40 41 34 27 27 28 23 25 21 23 14 12 18 22 21 34 29 43 47 34 31 12 6 353 353 356 348 340
89 94 92 107 83 60 49 62 65 80 88 88 82 76 75 70 70 67 60 63 83 89 103 107 111 104 100 114 122 116 114 106 104 106 106 102 108 113 97 64 72 102 109 94 85 80 53 11 21 34 24 10 4 9 1 9 26 60 50 42 41 34 26 27 21 16 22 20 16 16 5 4 11 30 31 18 25 20 58 53 41 350 324 305 305 331 326
146 159 175 171 106 87 63 75 101 108 105 100 95 95 92 98 98 95 89 61 61 101 126 134 125 124 124 123 120 123 128 130 128 116 105 109 108 91 77 79 83 84 84 105 100 90 50 10 24 33 18 360 353 358 5 14 26 55 49 46 41 30 28 29 16 15 13 14 13 14 13 6 357 357 78 67 20 75 357 18 10 339 227 293 309 322 319
192 234 167 69 104 93 81 126 101 112 128 118 121 120 122 116 122 128 120 115 97 90 53 58 122 126 136 159 131 116 124 146 154 143 136 129 127 130 123 97 84 95 101 107 106 98 98 343 8 5 9 351 358 359 12 22 55 57 61 59 48 30 28 20 10 14 16 16 11 16 16 12 12 5 347 40 48 28 33 12 12 30 39 16 4 352 313
59 100 133 127 117 141 145 78 64 74 103 112 101 92 101 128 133 128 121 131 130 111 91 60 101 134 128 155 132 120 112 133 130 119 109 119 135 131 124 122 128 120 123 124 130 150 182 180 181 6 5 353 360 355 7 30 57 66 59 71 56 33 26 15 20 24 26 27 22 24 14 16 16 8 13 349 356 60 26 7 10 18 19 11 2 352 337
143 174 138 109 97 84 88 108 85 66 45 121 127 137 140 121 101 126 118 121 134 133 130 117 114 144 139 160 140 141 144 152 158 151 144 131 110 113 123 116 128 133 142 147 154 167 177 170 124 335 20 350 346 3 26 45 61 62 53 60 51 32 29 25 30 30 31 29 28 32 27 22 17 25 22 21 1 336 9 38 13 11 7 359 355 352 348
93 87 93 91 85 85 133 91 52 58 90 113 106 90 85 128 144 133 140 147 153 139 130 146 132 95 131 131 124 117 105 138 158 133 116 121 99 87 115 153 157 141 139 148 162 182 173 114 107 12 15 336 341 4 33 54 65 73 63 56 50 44 40 35 37 30 26 30 32 33 33 33 36 31 34 29 9 3 341 342 10 50 22 347 349 351 353
112 123 106 79 81 74 112 142 181 205 163 70 113 135 140 113 104 113 102 75 83 78 129 140 128 134 101 117 124 129 144 146 105 132 164 148 153 177 187 159 154 146 140 133 150 16 34 30 18 14 360 332 327 357 26 59 70 59 54 53 53 49 44 45 59 43 38 39 39 36 32 33 31 30 32 18 15 12 5 360 350 345 339 340 340 355 344
127 119 114 137 173 193 226 272 76 101 100 122 137 132 132 107 105 102 101 101 80 63 67 86 122 120 116 169 131 105 94 131 157 170 164 176 190 199 167 160 155 141 132 139 106 23 39 40 19 20 1 336 344 356 15 51 53 41 41 50 57 54 36 34 37 39 36 38 42 41 41 35 38 45 30 24 21 10 8 8 357 340 334 335 327 321 334
1 345 351 95 137 131 110 101 89 99 88 60 71 85 119 113 110 129 145 117 130 105 109 59 37 115 147 177 140 136 142 148 161 187 193 192 149 143 146 140 128 120 120 116 73 58 68 48 41 42 354 331 342 349 357 40 44 29 27 37 55 48 32 15 30 37 35 47 46 49 45 41 42 34 30 28 21 17 12 1 349 340 335 335 339 342 347
349 356 45 88 110 126 108 129 164 131 79 74 108 102 113 131 132 190 185 155 134 154 178 70 104 105 104 146 185 164 169 190 191 171 145 142 113 124 127 125 95 81 83 91 86 61 76 60 64 45 341 329 336 325 346 32 44 38 50 65 88 87 43 360 49 43 49 34 36 43 39 43 40 36 33 28 16 3 353 349 347 344 347 348 347 349 350
48 51 52 56 87 103 140 168 110 99 80 64 99 118 84 105 156 161 207 189 129 141 148 140 154 145 155 186 201 215 128 114 125 129 127 119 110 109 148 160 147 168 173 183 183 147 95 72 74 10 314 313 321 319 350 47 354 74 86 75 64 53 82 81 68 79 83 56 46 40 41 41 38 36 30 18 360 354 349 345 343 347 347 348 347 348 344
76 46 50 29 32 80 72 81 112 135 122 105 122 165 170 152 163 193 201 194 205 175 157 147 183 190 190 169 155 146 113 100 89 82 69 27 42 71 125 211 228 196 181 204 182 132 127 63 30 331 311 312 333 354 8 16 16 34 56 66 85 238 82 88 80 66 56 63 53 48 42 40 39 35 30 11 354 346 345 342 344 342 344 348 345 345 340
87 68 37 310 68 54 58 249 178 206 189 189 211 230 213 234 193 178 187 173 133 161 174 193 206 179 149 128 136 125 111 98 87 71 317 276 299 333 3 343 180 182 223 233 207 172 174 128 301 298 316 339 350 337 1 5 332 321 34 93 123 107 76 68 77 79 72 63 57 52 49 49 47 42 28 354 340 343 345 344 341 344 348 348 348 342 342
163 179 190 190 171 178 199 232 226 231 259 233 206 184 239 268 241 176 130 133 132 167 202 205 195 160 125 127 118 105 105 104 292 252 235 247 266 304 348 327 285 235 254 285 235 172 218 240 251 284 315 333 325 321 6 46 38 13 9 44 69 99 123 116 112 99 87 76 74 65 65 58 47 34 3 345 349 350 346 344 350 349 352 354 351 342 339
107 65 106 115 39 22 172 166 187 206 208 222 243 204 213 210 174 172 152 163 181 201 174 139 152 134 117 102 106 124 160 196 223 225 236 234 249 279 326 319 320 341 311 285 250 229 214 218 239 267 319 338 321 328 18 34 70 54 37 45 79 66 144 136 125 112 114 114 91 68 68 58 50 17 345 348 350 352 356 4 5 5 7 1 352 349 350
113 93 103 88 92 102 218 190 187 183 187 202 208 194 187 193 156 144 178 210 167 125 143 143 136 114 111 123 146 187 214 232 227 232 249 249 236 211 78 52 360 328 307 303 273 235 230 229 235 256 250 118 324 11 39 41 320 127 98 87 89 113 137 115 102 91 111 121 101 90 86 88 72 27 355 350 359 358 359 358 3 10 15 8 2 0 1
180 153 161 159 162 158 184 193 185 168 190 198 190 166 177 186 191 204 165 145 156 159 151 139 115 145 198 208 209 214 219 210 204 205 218 223 174 144 134 108 106 188 180 264 269 249 220 215 230 264 3 25 313 360 235 211 129 99 99 108 131 131 139 126 131 143 125 107 112 114 116 102 71 40 18 10 1 348 346 348 347 354 10 14 13 14 12
195 182 166 157 158 153 198 209 186 165 143 134 193 197 193 192 195 187 194 185 179 164 157 158 166 181 165 122 180 228 246 227 214 229 231 210 189 174 215 199 234 174 191 222 243 247 236 224 224 247 129 216 243 211 199 206 93 87 99 174 192 177 175 157 145 154 133 133 143 133 131 119 114 77 15 6 1 351 346 346 351 352 3 10 19 25 28
60 50 82 113 132 170 188 153 154 180 170 193 207 204 214 184 182 162 189 197 166 144 150 152 114 122 159 179 234 252 254 232 213 209 208 218 206 183 218 219 216 200 208 218 200 235 259 243 241 272 261 209 202 157 116 107 90 151 180 203 187 184 185 195 197 168 153 158 155 146 137 127 128 129 80 10 353 350 1 2 356 349 355 358 10 20 28
81 90 157 137 149 47 19 254 217 217 225 200 169 199 194 164 174 183 194 173 180 164 164 147 149 179 207 218 233 247 242 209 188 191 204 186 165 223 290 284 250 236 233 225 229 235 232 227 208 237 210 168 164 163 148 136 148 157 155 146 177 216 215 217 218 184 153 153 147 147 143 137 141 149 148 258 333 12 8 1 5 357 353 360 10 10 16
170 187 214 168 237 359 190 256 266 267 254 244 228 217 181 176 158 152 193 208 194 173 179 177 180 211 215 216 218 236 249 201 186 193 173 141 173 212 238 275 264 220 211 208 215 215 205 201 204 229 226 160 130 332 99 93 80 42 90 99 96 97 187 180 194 193 155 161 165 174 166 155 152 164 170 174 225 278 311 339 21 358 12 20 17 13 16
215 144 180 220 237 221 216 213 220 297 279 234 231 206 201 178 169 200 210 184 172 183 188 205 208 208 216 216 219 239 246 221 196 187 183 189 200 189 193 259 246 204 200 200 212 206 192 188 194 207 178 150 159 213 224 356 304 236 125 107 111 129 128 140 149 177 168 168 171 166 157 155 161 161 168 173 204 273 299 284 28 16 23 17 21 17 24
235 175 205 248 255 265 247 208 192 212 243 267 214 201 196 193 205 218 169 167 184 187 202 214 222 236 233 201 193 257 258 208 202 202 222 252 245 212 205 231 253 276 187 186 193 195 196 195 189 196 173 157 182 205 213 208 195 192 169 161 148 122 117 134 142 158 154 158 164 166 166 165 165 170 169 176 194 229 274 259 148 101 60 27 20 19 28
241 233 216 199 221 229 222 322 336 77 225 270 287 192 181 190 200 199 198 190 190 196 197 211 214 219 225 213 210 249 262 220 211 197 206 282 297 248 222 239 244 210 191 191 188 198 204 200 194 186 172 174 192 201 206 201 184 271 181 124 144 133 109 78 72 141 162 173 171 174 174 175 176 176 180 176 188 217 218 239 201 176 126 96 78 46 29
251 239 230 224 234 239 212 188 189 224 232 253 308 239 207 200 206 206 196 192 200 205 206 211 214 219 217 203 211 223 231 218 190 153 155 250 294 293 255 217 227 219 207 198 198 201 204 201 196 185 173 177 192 199 206 208 209 220 206 169 180 196 184 183 186 184 184 184 182 172 169 185 193 186 190 189 184 192 203 216 223 178 157 131 101 82 55
258 254 249 261 248 234 239 239 249 219 234 277 287 278 229 204 203 203 201 200 204 209 206 207 208 214 210 214 228 242 275 254 213 210 213 193 190 221 200 175 210 212 203 193 203 208 212 201 186 180 183 189 189 189 204 203 208 229 230 213 217 227 227 214 180 174 189 199 184 177 177 180 186 198 197 195 195 191 188 219 204 160 156 147 130 135 120
258 278 251 222 250 262 282 279 216 118 83 267 265 274 269 223 205 205 210 211 211 213 209 210 218 228 218 208 195 201 243 269 271 227 228 242 248 243 214 197 196 195 181 190 202 206 206 195 191 192 193 198 188 196 199 200 205 223 229 229 224 232 229 216 203 191 188 195 193 185 180 175 183 188 191 202 200 193 181 180 214 228 162 146 151 150 143
229 246 255 238 248 258 230 184 138 178 196 218 229 246 263 241 214 226 215 210 226 228 219 217 225 235 225 218 220 217 207 194 254 286 209 213 221 215 215 206 201 183 185 196 204 219 202 198 196 198 201 188 184 200 199 201 204 216 229 237 232 229 223 217 207 201 196 182 171 170 177 179 181 182 191 196 204 197 189 182 177 174 192 159 153 175 164
224 239 253 238 238 258 268 225 205 218 240 239 233 252 265 280 268 267 246 234 232 238 234 240 241 251 243 232 223 232 226 205 186 234 233 181 190 196 207 190 179 172 171 182 197 210 198 202 205 201 183 176 186 195 198 198 205 218 232 235 236 232 227 221 220 197 189 194 193 185 187 185 184 181 189 197 199 194 191 189 174 169 170 160 143 164 176
272 309 310 302 286 280 254 243 251 244 249 220 228 249 229 130 256 267 225 213 220 225 243 257 250 250 252 254 237 237 225 220 243 262 243 185 189 185 176 178 176 175 176 184 192 200 192 192 197 193 178 181 189 193 200 202 211 220 228 229 229 231 225 217 206 197 203 197 195 195 192 191 184 181 178 180 187 191 187 180 173 178 173 159 150 171 176
273 250 254 250 245 249 223 205 222 228 235 224 225 194 167 183 222 251 235 198 163 194 241 258 275 266 274 270 255 236 220 224 231 233 238 227 200 198 192 184 178 178 181 185 189 193 182 178 187 187 189 191 194 201 202 210 216 220 215 212 215 213 204 199 195 202 206 205 203 199 193 181 175 177 179 180 182 182 176 171 171 167 173 171 152 153 168
237 241 262 273 267 267 253 253 251 241 240 242 222 196 206 220 244 275 278 200 185 206 210 211 267 274 240 242 263 270 233 203 222 231 225 215 210 210 190 182 179 178 181 189 197 190 186 190 189 192 192 195 203 210 222 223 220 218 211 200 203 208 206 195 189 195 203 197 194 196 194 187 174 171 178 181 180 176 177 179 177 171 173 153 136 141 144